This demonstration page uses our WeatherBlox Daily Observations layout. Learn more.

38.88101, -77.10428

Hourly Observations for June 16, 2016

Temp ( °F °C ) Dew Point ( °F °C ) Humidity (%) Winds ( mph kmh ) Pressure ( in mb ) Visibility ( mi km ) Precip ( " mm )
12:04 am 00:04 Cloudy 75 24 66 19 74 74 Calm 29.83 1010 10 16.0934 0 0
12:52 am 00:52 Cloudy 75 23.9 68 20 79 79 E 6 9 29.81 1010 10 16.0934 0 0
1:23 am 01:23 Cloudy 75 23.9 68 20 79 79 ENE 6 9 29.8 1009 10 16.0934 0 0
1:52 am 01:52 Cloudy with Light Rain 75 23.9 68 20 79 79 ENE 5 7 29.79 1009 10 16.0934 0 0.0254
2:18 am 02:18 Cloudy with Light Rain 73 23 70 21 89 89 E 3 6 29.77 1008 8 12.87472 0 0
2:31 am 02:31 Cloudy 74 23.3 69 20.6 85 85 SE 3 6 29.77 1008 10 16.0934 0.02 0.508
2:52 am 02:52 Cloudy 73 22.8 69 20.6 87 87 Calm 29.76 1008 10 16.0934 0.02 0.508
3:52 am 03:52 Mostly Cloudy 73 22.8 69 20.6 87 87 SSE 3 6 29.73 1007 10 16.0934 0 0
4:52 am 04:52 Cloudy 73 22.8 69 20.6 87 87 NNE 6 9 29.72 1007 10 16.0934 0 0
5:52 am 05:52 Cloudy 73 22.8 70 21.1 90 90 ENE 8 13 29.73 1007 10 16.0934 0 0
5:58 am 05:58 Cloudy 73 23 70 21 89 89 ENE 8 13 29.74 1007 10 16.0934 0 0
6:25 am 06:25 Cloudy 72 22.2 69 20.6 91 91 ENE 7 11 29.74 1007 10 16.0934 0 0
6:52 am 06:52 Cloudy 72 22.2 69 20.6 91 91 NE 8 13 29.74 1007 10 16.0934 0 0
7:30 am 07:30 Cloudy with Light Rain 72 22 66 19 83 83 NE 8 13 29.77 1008 10 16.0934 0 0
7:52 am 07:52 Cloudy 72 22.2 67 19.4 84 84 NNE 8 13 29.76 1008 10 16.0934 0 0.0254
8:03 am 08:03 Cloudy 72 22 66 19 83 83 NNE 9 15 29.77 1008 10 16.0934 0 0
8:52 am 08:52 Cloudy with Light Rain 72 22.2 68 20 87 87 ENE 7 11 29.75 1007 9 14.48406 0 0.0254
9:00 am 09:00 Cloudy with Light Rain 72 22 68 20 88 88 NE 5 7 29.74 1007 6 9.65604 0 0
9:19 am 09:19 Cloudy 73 22.8 68 20 84 84 N 6 9 29.77 1008 10 16.0934 0 0.0254
9:49 am 09:49 Cloudy with Haze 73 23 68 20 83 83 NNE 7 11 29.77 1008 5 8.0467 0 0.0254
9:52 am 09:52 Cloudy with Haze 74 23.3 68 20 82 82 N 6 9 29.75 1008 5 8.0467 0 0.0254
10:52 am 10:52 Cloudy with Haze 75 23.9 69 20.6 82 82 NE 9 15 29.75 1008 4 6.43736 0 0
11:27 am 11:27 Cloudy with Haze 75 23.9 68 20 79 79 E 6 9 29.77 1008 6 9.65604 0 0
11:52 am 11:52 Cloudy 78 25.6 69 20.6 74 74 ENE 8 13 29.77 1008 8 12.87472 0 0
12:52 pm 12:52 Mostly Cloudy 81 27.2 68 20 65 65 NE 7 11 29.78 1008 10 16.0934 0 0
12:59 pm 12:59 Mostly Cloudy 81 27.2 68 20 65 65 NNE 5 7 29.77 1008 10 16.0934 0 0
1:52 pm 13:52 Partly Cloudy 84 28.9 68 20 59 59 VRB 5 7 29.75 1007 10 16.0934 0 0
2:52 pm 14:52 Mostly Cloudy 86 30 68 20 55 55 NE 9 15 29.72 1006 10 16.0934 0 0
3:52 pm 15:52 Mostly Cloudy 87 30.6 68 20 53 53 ENE 9 15 29.7 1006 10 16.0934 0 0
4:52 pm 16:52 Mostly Cloudy 86 30 69 20.6 57 57 ESE 3 6 29.68 1005 10 16.0934 0 0
5:52 pm 17:52 Mostly Cloudy 83 28.3 71 21.7 67 67 SE 13 20 29.65 1004 10 16.0934 0 0
6:52 pm 18:52 Mostly Cloudy 80 26.7 70 21.1 71 71 ESE 13 20 29.67 1005 10 16.0934 0 0
7:52 pm 19:52 Mostly Cloudy 77 25 69 20.6 77 77 E 14 22 29.68 1005 10 16.0934 0 0
8:27 pm 20:27 Mostly Cloudy with Light Rain 75 23.9 69 20.6 82 82 E 16 26 29.68 1005 10 16.0934 0 0.0254
8:52 pm 20:52 Cloudy with Light Rain 73 22.8 68 20 84 84 E 9 15 29.71 1006 10 16.0934 0 0.0254
9:02 pm 21:02 Cloudy with Rain 73 22.8 68 20 84 84 ENE 7 11 29.71 1006 7 11.26538 0.02 0.508
9:06 pm 21:06 Cloudy with Thunderstorms 73 23 68 20 83 83 ENE 9 15 29.71 1006 6 9.65604 0 0
9:29 pm 21:29 Cloudy with Light Thunderstorms 73 22.8 69 20.6 87 87 ENE 7 11 29.74 1007 7 11.26538 0.08 2.032
9:52 pm 21:52 Cloudy with Thunderstorms 72 22.2 69 20.6 91 91 NE 14 22 29.75 1008 5 8.0467 0.15 3.81
10:21 pm 22:21 Cloudy with Thunderstorms 72 22 70 21 94 94 E 22 35 29.71 1006 4 6.43736 0 0
10:52 pm 22:52 Cloudy with Thunderstorms 70 21.1 68 20 93 93 E 25 41 29.63 1004 6 9.65604 0.17 4.318
11:11 pm 23:11 Cloudy with Thunderstorms 69 20.6 67 19.4 93 93 ENE 13 20 29.68 1005 6 9.65604 0.08 2.032
11:52 pm 23:52 Cloudy 69 20.6 65 18.3 87 87 ENE 10 17 29.73 1007 10 16.0934 0.12 3.048

Powered by AerisWeather